Globalstar M088

operational
NORAD ID: 37740 Int'l Des: 2011-033 Owner: GLOBL Country: US Constellation: globalstar
LEOCIRCULAR

Über Globalstar M088

Beschreibung wird geladen...

Live-Position

3D-Globus wird geladen...

Nächste Überflüge

Höhenverlauf

Altitude vs Time

uPlot chart will show altitude changes over time

Zweizeiliger Elementsatz

1 37740U 11033B 25299.29670906 -.00000088 00000-0 86371-4 0 9991
2 37740 52.0211 270.6687 0000596 62.3259 77.3167 12.62269195658954
Epoch: 26. Okt. 2025 • Age: 8 hours

Aktueller Status

Höhe 1424.5 km
Geschwindigkeit 7.15 km/s
Subsatellitenpunkt -33.62°S, 142.04°W
Startdatum 13. Juli 2011
Alter 14.2 years
Typ communications

Technische Details

Klassifizierung Payload
Masse 715.00 kg
Trockenmasse 500.00 kg
Gesamtmasse 715.00 kg
Länge 4.00 m
Durchmesser 2.00 m
Spannweite 12.00 m
Form Trap Cyl + 2 Pan
Hersteller THALR
Bus-Typ Prisma
Phasenstatus In Orbit
Besitzer/Staat GLOBL/US

Große Konstellationen

Loading constellations...